User: anonymous   Login
Location: Asheville, NC
(35.6000°N, 82.5500°W)
Time: 00:22:40
(UTC-04:00)
Language:

DOVE 4 - Orbit

View from above orbital plane
View from above orbital plane
View from above satellite
View from above satellite

Ground track
Ground track

The orbit data is extracted from the following two-line orbital elements,

1 39430U 13066Q   18171.86950641  .00000188  00000-0  43514-4 0  9990
2 39430  97.6976 148.4774 0150587 319.4234  39.5819 14.59087274243687
Epoch (UTC): 20 June 2018 20:52:05
Eccentricity: 0.0150587
inclination: 97.6976°
perigee height: 589 km
apogee height: 802 km
right ascension of ascending node: 148.4774°
argument of perigee: 319.4234°
revolutions per day: 14.59087274
mean anomaly at epoch: 39.5819°
orbit number at epoch: 24368

The dashed part of the orbit path shows where the satellite is in the earth's shadow,  

DLR